Zurück zum Katalog

THORAD AGENA D DEB

AktivSSO
NORAD 4979·DEBRIS·🇺🇸 United States

Gestartet Apr 8, 1970 von Vandenberg Space Force Base

Loading…

Nächste Überflüge

TLE

Source: Space-Track
1  4979U 70025GZ  26221.64349860  .00000044  00000-0  12272-3 0  9991
2  4979 100.0404 106.0978 0013101 356.5709  31.8139 13.60005854789317

Verfolge THORAD AGENA D DEB in Echtzeit mit AllMySat

Download on the App Store